Regional Weather Roundup
Issued by NWS

Home | Current Version | Previous Version | Graphics & Text | Print | Product List | Glossary On
Versions: 1 2 3 4 5 6 7 8 9 10 11 12 13 14 15 16 17 18 19 20 21 22 23 24 25 26 27 28 29 30 31 32 33 34 35 36 37 38 39 40 41 42 43 44 45 46 47 48 49 50
000
ASUS43 KDMX 230101
RWRIA

WEATHER ROUNDUP FOR IOWA
NATIONAL WEATHER SERVICE DES MOINES IA
800 PM CDT SUN APR 22 2018

NOTE: "FAIR" INDICATES FEW OR NO CLOUDS BELOW 12,000 FEET WITH NO
SIGNIFICANT WEATHER AND/OR OBSTRUCTIONS TO VISIBILITY.

* - THESE STATIONS ARE NOT NWS STATIONS...THUS NOT UNDER NWS
QUALITY CONTROL.  THEY ALSO DO NOT REPORT WEATHER SUCH
AS PRECIPITATION OR FOG.

IAZ001>003-012>014-020>022-031>034-043>046-230200-
   NORTHWEST IOWA

CITY           SKY/WX    TMP DP  RH WIND       PRES   REMARKS
CARROLL *      PTCLDY    61  32  33 E8        30.17S
DENISON *      CLEAR     59  27  29 E8        30.18S
LE MARS *      CLEAR     59  43  55 NE10      30.19R
ORANGE CITY *  CLEAR     55  45  67 E7        30.20S
SHELDON *      CLEAR     52  43  71 E8        30.19S
SIOUX CITY     CLEAR     61  39  44 NE13      30.16R
SPENCER        CLEAR     50  39  66 E8        30.21S
STORM LAKE *   CLEAR     52  45  76 NE13      30.19R
$$

IAZ055>058-069>071-079>083-090>094-230200-
   SOUTHWEST IOWA

CITY           SKY/WX    TMP DP  RH WIND       PRES   REMARKS
ATLANTIC *     CLOUDY    64  30  27 E7G13     30.15R
AUDUBON *      CLOUDY    61  27  27 CALM      30.17S
CLARINDA *     CLEAR     64  34  32 NE7G14    30.14S
COUNCIL BLFS * CLOUDY    61  32  33 E7        30.14R
CRESTON *      CLEAR     59  32  36 NE9       30.15S
HARLAN  *      PTCLDY    61  28  29 E9        30.18S
LAMONI         MOCLDY    64  36  35 E12G17    30.12R
RED OAK *      CLEAR     61  34  36 MISG      30.13S
SHENANDOAH *   CLEAR     64  34  32 NE10      30.12S
$$

IAZ047>049-059>061-072>074-084-230200-
   CENTRAL IOWA

CITY           SKY/WX    TMP DP  RH WIND       PRES   REMARKS
AMES           PTCLDY    61  30  31 E10       30.18S
ANKENY *       CLOUDY    63  27  25 NE8       30.18S
BOONE *        CLEAR     57  27  30 E10       30.18R
CHARITON *     CLOUDY    64  30  27 NE8G15    30.14R
DES MOINES     MOCLDY    64  18  17 E8        30.16F
GRINNELL*      MOCLDY    59  30  32 E10       30.19S
KNOXVILLE *    PTCLDY    61  19  20 NE10      30.14S
MARSHALLTOWN   PTCLDY    59  34  39 E8        30.18F
NEWTON *       MOCLDY    61  28  29 E9        30.17S
PELLA *        PTCLDY    64  20  18 E13       30.18R
$$

IAZ004>006-015-016-023>025-035-036-230200-
   NORTH CENTRAL IOWA

CITY           SKY/WX    TMP DP  RH WIND       PRES   REMARKS
ALGONA *       CLEAR     54  43  66 NE8       30.21S
CLARION *      CLEAR     55  39  54 E9        30.20S
ESTHERVILLE    CLEAR     42  38  85 E8        30.21F
FORT DODGE *   CLEAR     55  37  50 E8        30.19S
MASON CITY     CLEAR     53  42  66 E9        30.23S
FOREST CITY *  FAIR      54  41  62 NE5       30.21F
IOWA FALLS *   FAIR      61  34  36 E9        30.21S
$$

IAZ007>011-017>019-026>030-037>042-050>054-066-230200-
   NORTHEAST IOWA

CITY           SKY/WX    TMP DP  RH WIND       PRES   REMARKS
CEDAR RAPIDS   FAIR      59  32  36 E10       30.19R
CHARLES CITY * FAIR      57  36  44 NE7       30.23S
CLINTON *        N/A     55  31  39 E12       30.22S
DECORAH *      FAIR      57  28  33 E6        30.23S
DUBUQUE        FAIR      56  32  40 E9        30.23R
MONTICELLO *   FAIR      59  32  36 E8        30.21S
OELWEIN *      FAIR      57  34  41 E7        30.22S
WATERLOO       FAIR      58  35  42 E9        30.21R
$$

IAZ064-065-067-068-078-230200-
   EAST CENTRAL IOWA

CITY           SKY/WX    TMP DP  RH WIND       PRES   REMARKS
DAVENPORT      CLOUDY    58  28  32 E13       30.22R
IOWA CITY      FAIR      60  31  33 NE7       30.20S
MT. PLEASANT * CLOUDY    57  27  30 E8        30.15S
MUSCATINE *    CLOUDY    63  32  31 NE9       30.18S
QUAD CITIES    CLOUDY    62  28  27 NE15      30.18S
$$

IAZ062-063-075>077-085>089-095>099-230200-
   SOUTHEAST IOWA

CITY           SKY/WX    TMP DP  RH WIND       PRES   REMARKS
BURLINGTON     CLOUDY    61  24  24 NE9       30.14S
FAIRFIELD *    CLOUDY    61  21  21 E9        30.16S
FORT MADISON * CLOUDY    61  27  27 NE9       30.15S
KEOKUK *       CLOUDY    61  23  23 NE9G15    30.13S
OSKALOOSA *    CLOUDY    62  21  20 E12G18    30.17S
CENTERVILLE *    N/A     63  28  27 E10       30.15S
OTTUMWA        CLOUDY    62  22  21 E13       30.16R
WASHINGTON *   CLOUDY    61  32  33 E12       30.18S
$$

ABBREVIATIONS USED IN REMARKS
   TC - TEMPERATURES IN CELSIUS
  WCI - WIND CHILL INDEX
   HX - HEAT INDEX
  VSB - VISIBILITY
$$





USA.gov is the U.S. government's official web portal to all federal, state and local government web resources and services.